McMinnville, OR

3:47 PM PST on November 21, 2017 (GMT -0800)
McMinnville Municipal

Weather History for KMMV - November, 2013

Change the Weather History Date:

Tuesday, November 5, 2013

  Actual Average Record
Temperature  
Mean Temperature 53 °F 47 °F  
Max Temperature 56 °F 55 °F 72 °F (1923)
Min Temperature 49 °F 39 °F 23 °F (1904)
Degree Days  
Heating Degree Days 12 18  
Month to date heating degree days 73 88  
Since 1 July heating degree days 616 711  
Cooling Degree Days 0 0  
Month to date cooling degree days 0 0  
Year to date cooling degree days 405 215  
Growing Degree Days 2 (Base 50)    
Moisture  
Dew Point 52 °F    
Average Humidity 95    
Maximum Humidity 100    
Minimum Humidity 89    
Precipitation  
Precipitation 0.08 in 0.21 in 1.61 in (1903)
Month to date precipitation 0.83 0.97  
Year to date precipitation 18.81 27.83  
Snow  
Snow 0.00 in - - ()
Month to date snowfall 0.0  
Snow Depth 0.00 in    
Sea Level Pressure  
Sea Level Pressure 30.18 in    
Wind  
Wind Speed 5 mph (South)    
Max Wind Speed 13 mph    
Max Gust Speed 15 mph    
Visibility 7 miles    
Events Rain    
T = Trace of Precipitation, MM = Missing Value Source: NWS Daily Summary

Daily Weather History Graph

Daily Weather History Graph

Search for Another Location

Airport or City:

Trip Planner

Search our weather history database for the weather conditions in past years. The results will help you decide how hot, cold, wet, or windy it might be!

Date:

Astronomy

Nov. 05, 2013 Rise Set
Actual Time 6:57 AM PST 4:54 PM PST
Civil Twilight 6:26 AM PST 5:25 PM PST
Nautical Twilight 5:51 AM PST 6:00 PM PST
Astronomical Twilight 5:16 AM PST 6:34 PM PST
Moon 9:22 AM PST (11/5) 6:57 PM PST (11/5)
Length of Visible Light 10h 59m
Length of Day
9h 56m
Waxing Crescent, 7% of the Moon is Illuminated
Nov 5
Waxing Crescent
Nov 9
First Quarter
Nov 17
Full
Nov 25
Last Quarter
Dec 2
New

Hourly Weather History & Observations

Time (PST) Temp. Dew Point Humidity Pressure Visibility Wind Dir Wind Speed Gust Speed Precip Events Conditions
12:53 AM 50.0 °F 48.0 °F 93% 30.11 in 10.0 mi South 9.2 mph - 0.00 in   Overcast
1:38 AM 50.0 °F 48.2 °F 94% 30.10 in 10.0 mi South 8.1 mph - N/A   Overcast
1:53 AM 50.0 °F 48.0 °F 93% 30.11 in 10.0 mi South 6.9 mph - N/A   Overcast
2:49 AM 50.0 °F 48.2 °F 94% 30.11 in 10.0 mi South 4.6 mph - N/A   Overcast
2:53 AM 50.0 °F 48.0 °F 93% 30.11 in 10.0 mi South 5.8 mph - N/A   Overcast
3:51 AM 50.0 °F 48.2 °F 94% 30.11 in 8.0 mi Calm Calm - 0.01 in Rain Light Rain
3:53 AM 50.0 °F 48.0 °F 93% 30.11 in 7.0 mi South 3.5 mph - 0.01 in Rain Light Rain
4:53 AM 50.0 °F 48.0 °F 93% 30.11 in 10.0 mi Calm Calm - 0.01 in Rain Light Rain
5:53 AM 50.0 °F 48.9 °F 96% 30.11 in 10.0 mi SSE 3.5 mph - 0.00 in   Overcast
6:32 AM 50.0 °F 48.2 °F 94% 30.11 in 10.0 mi SSE 3.5 mph - N/A   Overcast
6:53 AM 50.0 °F 48.9 °F 96% 30.12 in 10.0 mi South 3.5 mph - N/A   Overcast
7:53 AM 50.0 °F 48.9 °F 96% 30.14 in 10.0 mi Calm Calm - N/A   Overcast
8:07 AM 50.0 °F 48.2 °F 94% 30.15 in 10.0 mi Calm Calm - N/A   Overcast
8:53 AM 51.1 °F 48.9 °F 92% 30.15 in 10.0 mi SSE 4.6 mph - N/A   Overcast
9:18 AM 51.8 °F 50.0 °F 94% 30.16 in 10.0 mi SW 6.9 mph - N/A   Overcast
9:53 AM 52.0 °F 50.0 °F 93% 30.16 in 10.0 mi SSW 6.9 mph - N/A   Overcast
10:53 AM 53.1 °F 51.1 °F 93% 30.17 in 10.0 mi SSW 10.4 mph - N/A   Overcast
11:20 AM 51.8 °F 51.8 °F 100% 30.17 in 6.0 mi SSW 8.1 mph - 0.00 in   Overcast
11:42 AM 53.6 °F 51.8 °F 94% 30.16 in 10.0 mi SSW 9.2 mph - 0.00 in   Overcast
11:53 AM 53.1 °F 52.0 °F 96% 30.16 in 10.0 mi South 8.1 mph - 0.00 in   Overcast
12:08 PM 53.6 °F 51.8 °F 94% 30.16 in 10.0 mi SSW 8.1 mph - N/A   Overcast
12:53 PM 55.0 °F 53.1 °F 93% 30.16 in 10.0 mi SSW 8.1 mph - N/A   Overcast
1:06 PM 53.6 °F 53.6 °F 100% 30.16 in 10.0 mi SSW 8.1 mph - N/A   Overcast
1:53 PM 55.9 °F 53.1 °F 90% 30.16 in 10.0 mi SSW 8.1 mph - N/A   Overcast
2:26 PM 55.4 °F 53.6 °F 94% 30.17 in 10.0 mi SW 5.8 mph - N/A   Overcast
2:53 PM 55.0 °F 53.1 °F 93% 30.17 in 5.0 mi SSW 6.9 mph - 0.01 in Rain Light Rain
3:39 PM 55.4 °F 53.6 °F 94% 30.18 in 10.0 mi SW 4.6 mph - 0.00 in   Overcast
3:53 PM 55.0 °F 54.0 °F 96% 30.18 in 6.0 mi SW 4.6 mph - 0.00 in Rain Light Rain
4:53 PM 54.0 °F 53.1 °F 97% 30.19 in 10.0 mi ESE 3.5 mph - 0.00 in   Overcast
5:53 PM 53.1 °F 53.1 °F 100% 30.20 in 5.0 mi East 3.5 mph - N/A   Overcast
6:13 PM 53.6 °F 53.6 °F 100% 30.21 in 5.0 mi Calm Calm - N/A   Overcast
6:53 PM 53.1 °F 53.1 °F 100% 30.22 in 4.0 mi Calm Calm - 0.01 in   Overcast
7:53 PM 53.1 °F 53.1 °F 100% 30.22 in 4.0 mi ENE 4.6 mph - N/A   Overcast
8:23 PM 53.6 °F 53.6 °F 100% 30.23 in 1.8 mi Calm Calm - 0.02 in Rain Rain
8:31 PM 53.6 °F 53.6 °F 100% 30.23 in 2.0 mi Calm Calm - 0.02 in Rain Light Rain
8:38 PM 53.6 °F 53.6 °F 100% 30.23 in 2.5 mi Calm Calm - 0.02 in Rain Light Rain
8:45 PM 53.6 °F 53.6 °F 100% 30.23 in 3.0 mi Calm Calm - 0.02 in Rain Light Rain
8:53 PM 53.1 °F 53.1 °F 100% 30.24 in 2.5 mi Calm Calm - 0.02 in   Overcast
9:06 PM 53.6 °F 53.6 °F 100% 30.24 in 2.5 mi Calm Calm - 0.00 in Rain Light Rain
9:12 PM 53.6 °F 53.6 °F 100% 30.23 in 3.0 mi Calm Calm - 0.00 in Rain Light Rain
9:32 PM 53.6 °F 53.6 °F 100% 30.24 in 2.5 mi Calm Calm - 0.01 in   Overcast
9:53 PM 53.1 °F 53.1 °F 100% 30.25 in 2.5 mi NNE 3.5 mph - 0.01 in Rain Light Rain
10:06 PM 53.6 °F 53.6 °F 100% 30.24 in 1.8 mi Calm Calm - 0.01 in Rain Light Rain
10:08 PM 53.6 °F 53.6 °F 100% 30.24 in 2.0 mi Calm Calm - 0.01 in Rain Light Rain
10:19 PM 53.6 °F 53.6 °F 100% 30.25 in 3.0 mi Calm Calm - 0.01 in Rain Light Rain
10:30 PM 53.6 °F 51.8 °F 94% 30.25 in 4.0 mi NNW 3.5 mph - 0.01 in   Overcast
10:53 PM 52.0 °F 52.0 °F 100% 30.25 in 7.0 mi NNW 3.5 mph - 0.01 in   Overcast
11:02 PM 51.8 °F 51.8 °F 100% 30.25 in 7.0 mi Calm Calm - N/A   Overcast
11:09 PM 51.8 °F 51.8 °F 100% 30.25 in 8.0 mi Calm Calm - N/A   Overcast
11:53 PM 52.0 °F 51.1 °F 97% 30.25 in 8.0 mi North 5.8 mph - N/A   Overcast